Location: Gull Harbor
(47.1000°N, 122.9000°W)
Time: 08:34:19
(UTC-07:00)

X-37B - Pass Details

Date: 31 July 2021
Orbit: 381 x 393 km, 45.0° (Epoch: 29 August)

Event Time Altitude Azimuth Distance (km) Brightness Sun altitude
Exits shadow 05:08:54 - 203° (SSW) 1,709 3.3 -6.7°
Reaches altitude 10° 05:09:58 10° 191° (S) 1,391 3.0 -6.6°
Maximum altitude 05:12:00 16° 150° (SSE) 1,091 2.8 -6.3°
Drops below altitude 10° 05:14:02 10° 110° (ESE) 1,397 3.9 -6.0°
Sets 05:16:37 0° 87° (E) 2,255 5.6 -5.7°
